| time (UTC) | temp C | wind direction | speed KPH | gust KPH | rain 1hr cm | rain 24hr cm | rain mn cm | humidity % | barometer mb |
| 20260507185525 | 14 | 271 | 6.4 | 12.9 | 0.00 | 0.00 | 0.00 | 46 | 1010.6 |
| 20260507185004 | 14 | 267 | 6.4 | 11.3 | 0.00 | 0.00 | 0.00 | 45 | 1010.6 |
| 20260507184504 | 14 | 264 | 6.4 | 11.3 | 0.00 | 0.00 | 0.00 | 44 | 1010.6 |
| 20260507184004 | 14 | 264 | 6.4 | 11.3 | 0.00 | 0.00 | 0.00 | 44 | 1010.6 |
| 20260507183504 | 14 | 268 | 8.0 | 11.3 | 0.00 | 0.00 | 0.00 | 45 | 1010.6 |
| 20260507183004 | 14 | 269 | 8.0 | 14.5 | 0.00 | 0.00 | 0.00 | 45 | 1010.6 |
| 20260507182505 | 14 | 270 | 8.0 | 14.5 | 0.00 | 0.00 | 0.00 | 46 | 1010.6 |
| 20260507182026 | 14 | 273 | 8.0 | 14.5 | 0.00 | 0.00 | 0.00 | 45 | 1010.6 |
| 20260507181525 | 14 | 280 | 8.0 | 14.5 | 0.00 | 0.00 | 0.00 | 46 | 1010.6 |
| 20260507181005 | 14 | 280 | 8.0 | 14.5 | 0.00 | 0.00 | 0.00 | 44 | 1010.6 |
| 20260507180504 | 14 | 284 | 8.0 | 17.7 | 0.00 | 0.00 | 0.00 | 45 | 1010.6 |
| 20260507180005 | 14 | 291 | 9.7 | 17.7 | 0.00 | 0.00 | 0.00 | 44 | 1010.6 |
| 20260507175504 | 14 | 295 | 8.0 | 16.1 | 0.00 | 0.00 | 0.00 | 47 | 1010.6 |
| 20260507175005 | 14 | 296 | 8.0 | 16.1 | 0.00 | 0.00 | 0.00 | 45 | 1010.6 |
| 20260507174504 | 15 | 270 | 8.0 | 17.7 | 0.00 | 0.00 | 0.00 | 47 | 1010.6 |
| 20260507174026 | 14 | 253 | 8.0 | 17.7 | 0.00 | 0.00 | 0.00 | 50 | 1010.6 |
| 20260507173504 | 15 | 265 | 6.4 | 16.1 | 0.00 | 0.00 | 0.00 | 46 | 1010.6 |
| 20260507173025 | 15 | 261 | 4.8 | 16.1 | 0.00 | 0.00 | 0.00 | 45 | 1010.6 |
| 20260507172504 | 15 | 237 | 4.8 | 11.3 | 0.00 | 0.00 | 0.00 | 53 | 1010.6 |
| 20260507172004 | 13 | 261 | 6.4 | 12.9 | 0.00 | 0.00 | 0.00 | 50 | 1010.6 |
| 20260507171505 | 13 | 274 | 6.4 | 12.9 | 0.00 | 0.00 | 0.00 | 50 | 1010.6 |
| 20260507171005 | 14 | 290 | 6.4 | 14.5 | 0.00 | 0.00 | 0.00 | 47 | 1010.6 |
| 20260507170504 | 15 | 301 | 6.4 | 14.5 | 0.00 | 0.00 | 0.00 | 47 | 1010.6 |
| 20260507170005 | 14 | 298 | 6.4 | 12.9 | 0.00 | 0.00 | 0.00 | 47 | 1010.6 |
| 20260507165525 | 14 | 293 | 9.7 | 11.3 | 0.00 | 0.00 | 0.00 | 53 | 1010.6 |
| 20260507165004 | 13 | 294 | 9.7 | 12.9 | 0.00 | 0.00 | 0.00 | 49 | 1010.6 |
| 20260507164504 | 14 | 296 | 8.0 | 20.9 | 0.00 | 0.00 | 0.00 | 46 | 1010.6 |
| 20260507164004 | 14 | 293 | 6.4 | 20.9 | 0.00 | 0.00 | 0.00 | 46 | 1010.6 |
| 20260507163505 | 14 | 257 | 6.4 | 12.9 | 0.00 | 0.00 | 0.00 | 51 | 1010.6 |
| 20260507163005 | 14 | 286 | 6.4 | 12.9 | 0.00 | 0.00 | 0.00 | 53 | 1010.6 |
| 20260507162525 | 14 | 301 | 6.4 | 12.9 | 0.00 | 0.00 | 0.00 | 48 | 1010.6 |
| 20260507162004 | 13 | 285 | 8.0 | 12.9 | 0.00 | 0.00 | 0.00 | 54 | 1010.6 |
| 20260507161504 | 13 | 286 | 6.4 | 12.9 | 0.00 | 0.00 | 0.00 | 49 | 1010.6 |
| 20260507161005 | 13 | 284 | 8.0 | 12.9 | 0.00 | 0.00 | 0.00 | 48 | 1010.6 |
| 20260507160505 | 13 | 282 | 8.0 | 12.9 | 0.00 | 0.00 | 0.00 | 49 | 1010.6 |
| 20260507160005 | 13 | 300 | 8.0 | 14.5 | 0.00 | 0.00 | 0.00 | 51 | 1010.6 |
| 20260507155505 | 13 | 314 | 8.0 | 14.5 | 0.00 | 0.00 | 0.00 | 49 | 1010.6 |
| 20260507155005 | 14 | 302 | 8.0 | 14.5 | 0.00 | 0.00 | 0.00 | 46 | 1010.6 |
| 20260507154504 | 13 | 284 | 6.4 | 19.3 | 0.00 | 0.00 | 0.00 | 48 | 1010.6 |
| 20260507154004 | 13 | 271 | 6.4 | 19.3 | 0.00 | 0.00 | 0.00 | 48 | 1010.6 |
| 20260507153525 | 13 | 254 | 6.4 | 11.3 | 0.00 | 0.00 | 0.00 | 47 | 1010.7 |
| 20260507153004 | 13 | 261 | 6.4 | 12.9 | 0.00 | 0.00 | 0.00 | 48 | 1010.8 |
| 20260507152504 | 12 | 271 | 6.4 | 12.9 | 0.00 | 0.00 | 0.00 | 48 | 1010.9 |
| 20260507152005 | 12 | 278 | 6.4 | 12.9 | 0.00 | 0.00 | 0.00 | 51 | 1011.0 |
| 20260507151526 | 12 | 285 | 6.4 | 12.9 | 0.00 | 0.00 | 0.00 | 52 | 1011.1 |
| 20260507151005 | 12 | 283 | 6.4 | 12.9 | 0.00 | 0.00 | 0.00 | 54 | 1011.2 |
| 20260507150505 | 12 | 289 | 4.8 | 12.9 | 0.00 | 0.00 | 0.00 | 53 | 1011.3 |
| 20260507150006 | 12 | 287 | 4.8 | 11.3 | 0.00 | 0.00 | 0.00 | 54 | 1011.3 |
| 20260507145504 | 13 | 278 | 4.8 | 16.1 | 0.00 | 0.00 | 0.00 | 54 | 1011.4 |
| 20260507145005 | 13 | 253 | 4.8 | 16.1 | 0.00 | 0.00 | 0.00 | 53 | 1011.4 |
| 20260507144504 | 13 | 237 | 4.8 | 9.7 | 0.00 | 0.00 | 0.00 | 54 | 1011.5 |
| 20260507144005 | 13 | 250 | 4.8 | 11.3 | 0.00 | 0.00 | 0.00 | 58 | 1011.5 |
| 20260507143525 | 13 | 227 | 4.8 | 12.9 | 0.00 | 0.00 | 0.00 | 61 | 1011.7 |
| 20260507143026 | 13 | 219 | 4.8 | 12.9 | 0.00 | 0.00 | 0.00 | 58 | 1011.7 |
| 20260507142504 | 12 | 241 | 4.8 | 11.3 | 0.00 | 0.00 | 0.00 | 57 | 1011.8 |
| 20260507142005 | 12 | 250 | 6.4 | 12.9 | 0.00 | 0.00 | 0.00 | 61 | 1011.8 |
| 20260507141504 | 12 | 220 | 6.4 | 12.9 | 0.00 | 0.00 | 0.00 | 62 | 1011.9 |
| 20260507141025 | 12 | 213 | 4.8 | 12.9 | 0.00 | 0.03 | 0.00 | 59 | 1011.9 |
| 20260507140505 | 12 | 217 | 4.8 | 12.9 | 0.00 | 0.03 | 0.00 | 61 | 1012.0 |
| 20260507140006 | 12 | 207 | 6.4 | 12.9 | 0.00 | 0.03 | 0.00 | 61 | 1012.1 |
| 20260507135504 | 11 | 205 | 4.8 | 12.9 | 0.00 | 0.05 | 0.00 | 62 | 1012.1 |
| 20260507135005 | 11 | 218 | 3.2 | 14.5 | 0.00 | 0.08 | 0.00 | 66 | 1012.2 |
| 20260507134504 | 11 | 239 | 3.2 | 14.5 | 0.00 | 0.10 | 0.00 | 67 | 1012.2 |
| 20260507134004 | 11 | 232 | 3.2 | 9.7 | 0.00 | 0.10 | 0.00 | 68 | 1012.2 |
| 20260507133505 | 11 | 226 | 3.2 | 9.7 | 0.00 | 0.10 | 0.00 | 71 | 1012.3 |
| 20260507133004 | 10 | 255 | 4.8 | 6.4 | 0.00 | 0.10 | 0.00 | 73 | 1012.4 |
| 20260507132504 | 10 | 241 | 4.8 | 6.4 | 0.00 | 0.10 | 0.00 | 75 | 1012.3 |
| 20260507132004 | 9 | 211 | 4.8 | 11.3 | 0.00 | 0.10 | 0.00 | 75 | 1012.3 |
| 20260507131505 | 8 | 207 | 3.2 | 11.3 | 0.00 | 0.10 | 0.00 | 76 | 1012.3 |
| 20260507131005 | 8 | 224 | 1.6 | 8.0 | 0.00 | 0.10 | 0.00 | 77 | 1012.2 |
| 20260507130505 | 7 | 245 | 1.6 | 6.4 | 0.00 | 0.10 | 0.00 | 81 | 1012.3 |
| 20260507130004 | 7 | 208 | 1.6 | 6.4 | 0.00 | 0.10 | 0.00 | 84 | 1012.2 |
| 20260507125525 | 6 | 207 | 0.0 | 6.4 | 0.00 | 0.10 | 0.00 | 86 | 1012.4 |
| 20260507125004 | 6 | 256 | 1.6 | 3.2 | 0.00 | 0.10 | 0.00 | 90 | 1012.4 |
| 20260507124525 | 5 | 218 | 3.2 | 6.4 | 0.00 | 0.10 | 0.00 | 93 | 1012.4 |
| 20260507124004 | 5 | 204 | 3.2 | 6.4 | 0.00 | 0.10 | 0.00 | 93 | 1012.4 |
| 20260507123504 | 4 | 203 | 1.6 | 4.8 | 0.00 | 0.10 | 0.00 | 93 | 1012.3 |
| 20260507123004 | 3 | 213 | 1.6 | 4.8 | 0.00 | 0.13 | 0.00 | 93 | 1012.3 |
| 20260507122504 | 3 | 211 | 1.6 | 4.8 | 0.00 | 0.13 | 0.00 | 93 | 1012.4 |
| 20260507122005 | 3 | 210 | 0.0 | 4.8 | 0.00 | 0.13 | 0.00 | 93 | 1012.4 |
| 20260507121504 | 2 | 0 | 0.0 | 0.0 | 0.00 | 0.13 | 0.00 | 93 | 1012.5 |
| 20260507121004 | 2 | 0 | 0.0 | 0.0 | 0.00 | 0.13 | 0.00 | 92 | 1012.4 |
| 20260507120504 | 2 | 0 | 0.0 | 0.0 | 0.00 | 0.13 | 0.00 | 93 | 1012.5 |
| 20260507120005 | 2 | 325 | 0.0 | 1.6 | 0.00 | 0.13 | 0.00 | 92 | 1012.5 |
| 20260507115504 | 1 | 325 | 0.0 | 1.6 | 0.00 | 0.13 | 0.00 | 92 | 1012.5 |
| 20260507115004 | 1 | 324 | 0.0 | 1.6 | 0.00 | 0.13 | 0.00 | 92 | 1012.5 |
| 20260507114505 | 1 | 0 | 0.0 | 0.0 | 0.00 | 0.15 | 0.00 | 92 | 1012.5 |
| 20260507114004 | 1 | 0 | 0.0 | 0.0 | 0.00 | 0.15 | 0.00 | 92 | 1012.5 |
| 20260507113526 | 1 | 0 | 0.0 | 0.0 | 0.00 | 0.18 | 0.00 | 91 | 1012.5 |
| 20260507113005 | 1 | 0 | 0.0 | 0.0 | 0.00 | 0.23 | 0.00 | 91 | 1012.4 |
| 20260507112505 | 1 | 0 | 0.0 | 0.0 | 0.00 | 0.25 | 0.00 | 91 | 1012.4 |
| 20260507112004 | 1 | 0 | 0.0 | 0.0 | 0.00 | 0.30 | 0.00 | 91 | 1012.4 |
| 20260507111504 | 1 | 105 | 0.0 | 3.2 | 0.00 | 0.36 | 0.00 | 91 | 1012.3 |
| 20260507111004 | 0 | 105 | 0.0 | 3.2 | 0.00 | 0.38 | 0.00 | 90 | 1012.2 |
| 20260507110504 | 0 | 0 | 0.0 | 0.0 | 0.00 | 0.46 | 0.00 | 90 | 1012.2 |
| 20260507110004 | 0 | 0 | 0.0 | 0.0 | 0.00 | 0.48 | 0.00 | 90 | 1012.2 |
| 20260507105504 | 0 | 0 | 0.0 | 0.0 | 0.00 | 0.53 | 0.00 | 90 | 1012.2 |
| 20260507105004 | 0 | 0 | 0.0 | 0.0 | 0.00 | 0.61 | 0.00 | 90 | 1012.2 |
| 20260507104505 | 0 | 0 | 0.0 | 0.0 | 0.00 | 0.66 | 0.00 | 89 | 1012.2 |
| 20260507104005 | 0 | 0 | 0.0 | 0.0 | 0.00 | 0.69 | 0.00 | 89 | 1012.1 |
| 20260507103505 | 0 | 0 | 0.0 | 0.0 | 0.00 | 0.71 | 0.00 | 89 | 1012.0 |
| 20260507103004 | 0 | 0 | 0.0 | 0.0 | 0.00 | 0.74 | 0.00 | 89 | 1012.0 |
| 20260507102505 | 0 | 0 | 0.0 | 0.0 | 0.00 | 0.79 | 0.00 | 89 | 1011.9 |
| 20260507102006 | 0 | 0 | 0.0 | 0.0 | 0.00 | 0.81 | 0.00 | 89 | 1011.9 |
| 20260507101505 | 1 | 0 | 0.0 | 0.0 | 0.00 | 0.84 | 0.00 | 88 | 1011.9 |
| 20260507101004 | 1 | 0 | 0.0 | 0.0 | 0.00 | 0.89 | 0.00 | 88 | 1011.9 |
| 20260507100504 | 1 | 0 | 0.0 | 0.0 | 0.00 | 0.91 | 0.00 | 88 | 1012.0 |
| 20260507100004 | 1 | 0 | 0.0 | 0.0 | 0.00 | 0.94 | 0.00 | 88 | 1012.0 |
| 20260507095525 | 1 | 0 | 0.0 | 0.0 | 0.00 | 0.99 | 0.00 | 87 | 1012.0 |
| 20260507095025 | 1 | 0 | 0.0 | 0.0 | 0.00 | 0.99 | 0.00 | 88 | 1012.0 |
| 20260507094504 | 1 | 0 | 0.0 | 0.0 | 0.00 | 1.02 | 0.00 | 87 | 1012.0 |
| 20260507094005 | 1 | 0 | 0.0 | 0.0 | 0.00 | 1.04 | 0.00 | 87 | 1012.0 |
| 20260507093504 | 1 | 0 | 0.0 | 0.0 | 0.00 | 1.07 | 0.00 | 87 | 1011.9 |
| 20260507093004 | 1 | 0 | 0.0 | 0.0 | 0.00 | 1.09 | 0.00 | 87 | 1011.9 |
| 20260507092504 | 1 | 0 | 0.0 | 0.0 | 0.00 | 1.09 | 0.00 | 86 | 1011.9 |
| 20260507092026 | 1 | 0 | 0.0 | 0.0 | 0.00 | 1.14 | 0.00 | 86 | 1012.0 |
| 20260507091504 | 2 | 0 | 0.0 | 0.0 | 0.00 | 1.14 | 0.00 | 86 | 1012.0 |
| 20260507091004 | 2 | 0 | 0.0 | 0.0 | 0.00 | 1.17 | 0.00 | 86 | 1011.9 |
| 20260507090504 | 2 | 0 | 0.0 | 0.0 | 0.00 | 1.17 | 0.00 | 85 | 1011.9 |
| 20260507090005 | 2 | 0 | 0.0 | 0.0 | 0.00 | 1.17 | 0.00 | 85 | 1011.8 |
| 20260507085504 | 2 | 0 | 0.0 | 0.0 | 0.00 | 1.17 | 0.00 | 85 | 1011.8 |
| 20260507085004 | 2 | 0 | 0.0 | 0.0 | 0.00 | 1.17 | 0.00 | 85 | 1011.8 |
| 20260507084526 | 2 | 0 | 0.0 | 0.0 | 0.00 | 1.17 | 0.00 | 84 | 1011.8 |
| 20260507084004 | 2 | 0 | 0.0 | 0.0 | 0.00 | 1.17 | 0.00 | 84 | 1011.8 |
| 20260507083505 | 2 | 0 | 0.0 | 0.0 | 0.00 | 1.17 | 0.00 | 83 | 1011.9 |
| 20260507083005 | 2 | 0 | 0.0 | 0.0 | 0.00 | 1.17 | 0.00 | 83 | 1011.9 |
| 20260507082504 | 3 | 0 | 0.0 | 0.0 | 0.00 | 1.19 | 0.00 | 83 | 1011.9 |
| 20260507082004 | 3 | 0 | 0.0 | 0.0 | 0.00 | 1.19 | 0.00 | 82 | 1012.0 |
| 20260507081504 | 3 | 0 | 0.0 | 0.0 | 0.00 | 1.19 | 0.00 | 82 | 1012.0 |
| 20260507081004 | 3 | 0 | 0.0 | 0.0 | 0.00 | 1.19 | 0.00 | 81 | 1012.0 |
| 20260507080504 | 3 | 0 | 0.0 | 0.0 | 0.00 | 1.19 | 0.00 | 81 | 1011.9 |
| 20260507080005 | 3 | 0 | 0.0 | 0.0 | 0.00 | 1.19 | 0.00 | 80 | 1011.8 |
| 20260507075505 | 3 | 0 | 0.0 | 0.0 | 0.00 | 1.19 | 0.00 | 80 | 1011.9 |
| 20260507075025 | 4 | 0 | 0.0 | 0.0 | 0.00 | 1.19 | 0.00 | 80 | 1012.0 |
| 20260507074504 | 4 | 0 | 0.0 | 0.0 | 0.00 | 1.19 | 0.00 | 79 | 1012.0 |
| 20260507074005 | 4 | 0 | 0.0 | 0.0 | 0.00 | 1.22 | 0.00 | 79 | 1012.0 |
| 20260507073505 | 4 | 0 | 0.0 | 0.0 | 0.00 | 1.22 | 0.00 | 79 | 1012.0 |
| 20260507073005 | 5 | 0 | 0.0 | 0.0 | 0.00 | 1.24 | 0.00 | 78 | 1011.9 |
| 20260507072504 | 5 | 0 | 0.0 | 0.0 | 0.00 | 1.24 | 0.00 | 78 | 1011.9 |
| 20260507072005 | 5 | 0 | 0.0 | 0.0 | 0.00 | 1.24 | 0.00 | 77 | 1011.8 |
| 20260507071505 | 5 | 0 | 0.0 | 0.0 | 0.00 | 1.27 | 0.00 | 77 | 1011.8 |
| 20260507071004 | 5 | 0 | 0.0 | 0.0 | 0.00 | 1.27 | 0.00 | 76 | 1011.8 |
| 20260507070504 | 5 | 0 | 0.0 | 0.0 | 0.00 | 1.30 | 0.00 | 76 | 1011.9 |
| 20260507070009 | 6 | 0 | 0.0 | 0.0 | 0.00 | 1.32 | 0.00 | 75 | 1011.9 |
| 20260507065504 | 6 | 0 | 0.0 | 0.0 | 0.00 | 1.32 | 0.00 | 75 | 1012.0 |
| 20260507065005 | 6 | 0 | 0.0 | 0.0 | 0.00 | 1.35 | 0.00 | 74 | 1012.0 |
| 20260507064504 | 6 | 0 | 0.0 | 0.0 | 0.00 | 1.35 | 0.00 | 73 | 1011.9 |
| 20260507064004 | 6 | 0 | 0.0 | 0.0 | 0.00 | 1.37 | 0.00 | 72 | 1011.9 |
| 20260507063504 | 6 | 0 | 0.0 | 0.0 | 0.00 | 1.37 | 0.00 | 71 | 1011.9 |
| 20260507063004 | 7 | 0 | 0.0 | 0.0 | 0.00 | 1.40 | 0.00 | 71 | 1011.9 |
| 20260507062504 | 7 | 0 | 0.0 | 0.0 | 0.00 | 1.40 | 0.00 | 71 | 1011.8 |
| 20260507062004 | 7 | 0 | 0.0 | 0.0 | 0.00 | 1.40 | 0.00 | 70 | 1011.9 |
| 20260507061504 | 7 | 0 | 0.0 | 0.0 | 0.00 | 1.42 | 0.00 | 70 | 1012.0 |
| 20260507061004 | 7 | 0 | 0.0 | 0.0 | 0.00 | 1.42 | 0.00 | 70 | 1012.0 |
| 20260507060505 | 7 | 0 | 0.0 | 0.0 | 0.00 | 1.45 | 0.00 | 71 | 1012.0 |
| 20260507060004 | 7 | 0 | 0.0 | 0.0 | 0.00 | 1.45 | 0.00 | 71 | 1012.0 |
| 20260507055504 | 7 | 260 | 0.0 | 3.2 | 0.00 | 1.45 | 0.00 | 71 | 1012.2 |
| 20260507055004 | 7 | 261 | 0.0 | 3.2 | 0.00 | 1.47 | 0.00 | 71 | 1012.4 |
| 20260507054525 | 7 | 263 | 0.0 | 1.6 | 0.00 | 1.47 | 0.00 | 70 | 1012.4 |
| 20260507054004 | 7 | 0 | 0.0 | 0.0 | 0.00 | 1.50 | 0.00 | 70 | 1012.4 |
| 20260507053504 | 7 | 0 | 0.0 | 0.0 | 0.00 | 1.50 | 0.00 | 69 | 1012.5 |
| 20260507053026 | 7 | 279 | 1.6 | 3.2 | 0.00 | 1.50 | 0.00 | 68 | 1012.6 |
| 20260507052504 | 7 | 283 | 1.6 | 3.2 | 0.00 | 1.50 | 0.00 | 68 | 1012.6 |
| 20260507052004 | 7 | 286 | 1.6 | 3.2 | 0.00 | 1.50 | 0.00 | 67 | 1012.6 |
| 20260507051504 | 7 | 289 | 1.6 | 4.8 | 0.00 | 1.50 | 0.00 | 68 | 1012.5 |
| 20260507051004 | 7 | 283 | 1.6 | 4.8 | 0.00 | 1.50 | 0.00 | 67 | 1012.5 |
| 20260507050505 | 7 | 274 | 0.0 | 3.2 | 0.00 | 1.50 | 0.00 | 67 | 1012.6 |
| 20260507050004 | 7 | 277 | 0.0 | 3.2 | 0.00 | 1.50 | 0.00 | 67 | 1012.6 |
| 20260507045504 | 7 | 287 | 0.0 | 4.8 | 0.00 | 1.50 | 0.00 | 66 | 1012.5 |
| 20260507045025 | 7 | 290 | 0.0 | 4.8 | 0.00 | 1.50 | 0.00 | 67 | 1012.6 |
| 20260507044504 | 7 | 0 | 0.0 | 0.0 | 0.00 | 1.50 | 0.00 | 66 | 1012.5 |
| 20260507044026 | 7 | 296 | 1.6 | 4.8 | 0.00 | 1.50 | 0.00 | 66 | 1012.5 |
| 20260507043504 | 7 | 293 | 3.2 | 4.8 | 0.00 | 1.50 | 0.00 | 65 | 1012.4 |
| 20260507043004 | 7 | 291 | 3.2 | 4.8 | 0.00 | 1.50 | 0.00 | 64 | 1012.3 |
| 20260507042525 | 7 | 288 | 3.2 | 6.4 | 0.00 | 1.50 | 0.00 | 64 | 1012.4 |
| 20260507042004 | 7 | 282 | 1.6 | 6.4 | 0.00 | 1.50 | 0.00 | 65 | 1012.5 |
| 20260507041525 | 7 | 279 | 1.6 | 4.8 | 0.00 | 1.50 | 0.00 | 65 | 1012.5 |
| 20260507041025 | 7 | 291 | 1.6 | 6.4 | 0.00 | 1.50 | 0.00 | 65 | 1012.4 |
| 20260507040505 | 7 | 300 | 0.0 | 6.4 | 0.00 | 1.50 | 0.00 | 65 | 1012.4 |
| 20260507040029 | 7 | 301 | 0.0 | 4.8 | 0.00 | 1.50 | 0.00 | 67 | 1012.4 |
| 20260507035504 | 8 | 0 | 0.0 | 0.0 | 0.00 | 1.50 | 1.50 | 68 | 1012.4 |
| 20260507035004 | 8 | 0 | 0.0 | 0.0 | 0.00 | 1.50 | 1.50 | 70 | 1012.2 |
| 20260507034504 | 8 | 235 | 0.0 | 3.2 | 0.00 | 1.50 | 1.50 | 71 | 1012.3 |
| 20260507034004 | 8 | 235 | 0.0 | 3.2 | 0.00 | 1.50 | 1.50 | 71 | 1012.2 |
| 20260507033504 | 8 | 0 | 0.0 | 0.0 | 0.00 | 1.50 | 1.50 | 71 | 1012.2 |
| 20260507033004 | 8 | 0 | 0.0 | 0.0 | 0.00 | 1.50 | 1.50 | 71 | 1012.2 |
| 20260507032525 | 8 | 0 | 0.0 | 0.0 | 0.00 | 1.50 | 1.50 | 70 | 1012.4 |
| 20260507032004 | 8 | 0 | 0.0 | 0.0 | 0.00 | 1.50 | 1.50 | 68 | 1012.1 |
| 20260507031504 | 8 | 0 | 0.0 | 0.0 | 0.00 | 1.50 | 1.50 | 67 | 1012.0 |
| 20260507031025 | 8 | 0 | 0.0 | 0.0 | 0.00 | 1.50 | 1.50 | 67 | 1011.9 |
| 20260507030504 | 8 | 0 | 0.0 | 0.0 | 0.00 | 1.50 | 1.50 | 67 | 1012.0 |
| 20260507030004 | 8 | 0 | 0.0 | 0.0 | 0.00 | 1.50 | 1.50 | 67 | 1011.9 |
| 20260507025505 | 8 | 0 | 0.0 | 0.0 | 0.00 | 1.50 | 1.50 | 67 | 1011.9 |
| 20260507025004 | 8 | 0 | 0.0 | 0.0 | 0.00 | 1.50 | 1.50 | 67 | 1011.9 |
| 20260507024504 | 8 | 0 | 0.0 | 0.0 | 0.00 | 1.50 | 1.50 | 68 | 1011.8 |
| 20260507024004 | 8 | 0 | 0.0 | 0.0 | 0.00 | 1.50 | 1.50 | 67 | 1011.9 |
| 20260507023504 | 8 | 292 | 0.0 | 1.6 | 0.00 | 1.50 | 1.50 | 65 | 1011.8 |
| 20260507023005 | 8 | 293 | 0.0 | 1.6 | 0.00 | 1.50 | 1.50 | 65 | 1011.8 |
| 20260507022504 | 8 | 360 | 0.0 | 3.2 | 0.00 | 1.50 | 1.50 | 63 | 1011.6 |
| 20260507022005 | 8 | 12 | 0.0 | 3.2 | 0.00 | 1.50 | 1.50 | 62 | 1011.5 |
| 20260507021504 | 9 | 0 | 0.0 | 0.0 | 0.00 | 1.50 | 1.50 | 62 | 1011.6 |
| 20260507021003 | 9 | 0 | 0.0 | 0.0 | 0.00 | 1.50 | 1.50 | 60 | 1011.6 |
| 20260507020526 | 9 | 299 | 1.6 | 3.2 | 0.00 | 1.50 | 1.50 | 60 | 1011.6 |
| 20260507020026 | 9 | 314 | 1.6 | 4.8 | 0.00 | 1.50 | 1.50 | 60 | 1011.7 |
| 20260507015526 | 9 | 323 | 1.6 | 6.4 | 0.00 | 1.50 | 1.50 | 60 | 1011.5 |
| 20260507015005 | 9 | 325 | 3.2 | 6.4 | 0.00 | 1.50 | 1.50 | 59 | 1011.5 |
| 20260507014525 | 9 | 315 | 3.2 | 8.0 | 0.00 | 1.50 | 1.50 | 59 | 1011.6 |
| 20260507014004 | 9 | 320 | 3.2 | 8.0 | 0.00 | 1.50 | 1.50 | 59 | 1011.6 |
| 20260507013504 | 9 | 309 | 3.2 | 9.7 | 0.00 | 1.50 | 1.50 | 59 | 1011.8 |
| 20260507013005 | 10 | 304 | 4.8 | 12.9 | 0.00 | 1.50 | 1.50 | 59 | 1011.9 |
| 20260507012503 | 10 | 313 | 4.8 | 12.9 | 0.00 | 1.50 | 1.50 | 59 | 1012.0 |
| 20260507012004 | 10 | 304 | 4.8 | 12.9 | 0.00 | 1.50 | 1.50 | 61 | 1012.2 |
| 20260507011524 | 10 | 304 | 6.4 | 12.9 | 0.00 | 1.50 | 1.50 | 60 | 1012.2 |
| 20260507011004 | 10 | 313 | 4.8 | 14.5 | 0.00 | 1.50 | 1.50 | 61 | 1012.0 |
| 20260507010504 | 10 | 313 | 4.8 | 14.5 | 0.00 | 1.50 | 1.50 | 61 | 1012.1 |
| 20260507010004 | 10 | 307 | 3.2 | 9.7 | 0.00 | 1.50 | 1.50 | 62 | 1012.0 |
| 20260507005504 | 10 | 305 | 3.2 | 9.7 | 0.00 | 1.50 | 1.50 | 62 | 1012.0 |
| 20260507005004 | 10 | 309 | 4.8 | 11.3 | 0.00 | 1.50 | 1.50 | 62 | 1011.8 |
| 20260507004504 | 10 | 308 | 6.4 | 11.3 | 0.00 | 1.50 | 1.50 | 62 | 1011.8 |
| 20260507004004 | 10 | 296 | 4.8 | 9.7 | 0.00 | 1.50 | 1.50 | 62 | 1011.6 |
| 20260507003504 | 10 | 302 | 4.8 | 14.5 | 0.00 | 1.50 | 1.50 | 62 | 1012.0 |
| 20260507003004 | 10 | 311 | 6.4 | 14.5 | 0.00 | 1.50 | 1.50 | 63 | 1011.9 |
| 20260507002504 | 10 | 304 | 6.4 | 11.3 | 0.00 | 1.50 | 1.50 | 62 | 1011.6 |
| 20260507002004 | 10 | 306 | 6.4 | 14.5 | 0.00 | 1.50 | 1.50 | 63 | 1011.6 |
| 20260507001504 | 10 | 311 | 6.4 | 14.5 | 0.00 | 1.50 | 1.50 | 65 | 1011.6 |
| 20260507001004 | 11 | 307 | 6.4 | 14.5 | 0.00 | 1.50 | 1.50 | 67 | 1011.6 |
| 20260507000504 | 11 | 300 | 6.4 | 9.7 | 0.00 | 1.50 | 1.50 | 67 | 1011.5 |
| 20260507000026 | 11 | 293 | 4.8 | 12.9 | 0.00 | 1.50 | 1.50 | 69 | 1011.2 |
| 20260506235504 | 11 | 289 | 3.2 | 12.9 | 0.00 | 1.50 | 1.50 | 69 | 1011.1 |
| 20260506235025 | 11 | 288 | 1.6 | 6.4 | 0.00 | 1.50 | 1.50 | 70 | 1011.1 |
| 20260506234504 | 11 | 286 | 3.2 | 4.8 | 0.00 | 1.50 | 1.50 | 70 | 1011.1 |
| 20260506234004 | 11 | 283 | 4.8 | 9.7 | 0.00 | 1.50 | 1.50 | 70 | 1011.0 |
| 20260506233504 | 11 | 283 | 4.8 | 9.7 | 0.00 | 1.50 | 1.50 | 70 | 1010.9 |
| 20260506233004 | 11 | 283 | 4.8 | 9.7 | 0.00 | 1.50 | 1.50 | 70 | 1010.8 |
| 20260506232504 | 11 | 282 | 4.8 | 6.4 | 0.00 | 1.50 | 1.50 | 71 | 1010.6 |
| 20260506232004 | 11 | 282 | 4.8 | 11.3 | 0.00 | 1.50 | 1.50 | 72 | 1010.6 |
| 20260506231505 | 11 | 283 | 4.8 | 11.3 | 0.00 | 1.50 | 1.50 | 71 | 1010.6 |
| 20260506231004 | 11 | 279 | 3.2 | 9.7 | 0.00 | 1.50 | 1.50 | 72 | 1010.6 |
| 20260506230503 | 11 | 280 | 1.6 | 9.7 | 0.00 | 1.50 | 1.50 | 73 | |
| 20260506230004 | 11 | 306 | 0.0 | 4.8 | 0.00 | 1.50 | 1.50 | 75 | |
| 20260506225503 | 11 | 294 | 0.0 | 4.8 | 0.00 | 1.50 | 1.50 | 76 | |
| 20260506225004 | 11 | 290 | 1.6 | 4.8 | 0.00 | 1.50 | 1.50 | 75 | |
| 20260506224504 | 11 | 298 | 1.6 | 3.2 | 0.00 | 1.50 | 1.50 | 75 | |
| 20260506224004 | 11 | 317 | 3.2 | 8.0 | 0.00 | 1.50 | 1.50 | 75 | |
| 20260506223504 | 11 | 300 | 4.8 | 8.0 | 0.00 | 1.50 | 1.50 | 74 | |
| 20260506223003 | 11 | 287 | 4.8 | 8.0 | 0.00 | 1.50 | 1.50 | 74 | |
| 20260506222503 | 11 | 304 | 4.8 | 12.9 | 0.00 | 1.50 | 1.50 | 73 | |
| 20260506222003 | 11 | 318 | 4.8 | 12.9 | 0.00 | 1.50 | 1.50 | 74 | |
| 20260506221504 | 11 | 324 | 4.8 | 9.7 | 0.00 | 1.50 | 1.50 | 73 | |
| 20260506221005 | 11 | 316 | 4.8 | 9.7 | 0.00 | 1.50 | 1.50 | 73 | |
| 20260506220504 | 11 | 319 | 6.4 | 9.7 | 0.00 | 1.50 | 1.50 | 73 | |
| 20260506220004 | 11 | 317 | 6.4 | 9.7 | 0.00 | 1.50 | 1.50 | 73 | |
| 20260506215504 | 11 | 303 | 6.4 | 12.9 | 0.00 | 1.50 | 1.50 | 74 | |
| 20260506215006 | 11 | 299 | 6.4 | 12.9 | 0.00 | 1.50 | 1.50 | 73 | |
| 20260506214504 | 11 | 298 | 6.4 | 8.0 | 0.00 | 1.50 | 1.50 | 74 | |
| 20260506214003 | 11 | 305 | 4.8 | 9.7 | 0.00 | 1.50 | 1.50 | 74 | |
| 20260506213504 | 11 | 322 | 4.8 | 11.3 | 0.00 | 1.50 | 1.50 | 74 | |
| 20260506213005 | 11 | 328 | 3.2 | 11.3 | 0.00 | 1.50 | 1.50 | 75 | |
| 20260506212504 | 11 | 314 | 3.2 | 4.8 | 0.00 | 1.50 | 1.50 | 76 | |
| 20260506212004 | 11 | 309 | 3.2 | 9.7 | 0.00 | 1.50 | 1.50 | 76 | |
| 20260506211525 | 11 | 303 | 3.2 | 9.7 | 0.00 | 1.50 | 1.50 | 75 | |
| 20260506211004 | 11 | 296 | 3.2 | 6.4 | 0.00 | 1.50 | 1.50 | 77 | |
| 20260506210504 | 11 | 313 | 4.8 | 6.4 | 0.00 | 1.50 | 1.50 | 77 | |
| 20260506210004 | 11 | 300 | 4.8 | 9.7 | 0.00 | 1.50 | 1.50 | 77 | |
| 20260506205504 | 11 | 287 | 4.8 | 9.7 | 0.00 | 1.50 | 1.50 | 77 | |
| 20260506205004 | 11 | 296 | 4.8 | 14.5 | 0.00 | 1.50 | 1.50 | 78 | |
| 20260506204504 | 11 | 296 | 4.8 | 14.5 | 0.00 | 1.50 | 1.50 | 77 | |
| 20260506204004 | 11 | 291 | 8.0 | 11.3 | 0.00 | 1.50 | 1.50 | 78 | |
| 20260506203504 | 11 | 291 | 8.0 | 16.1 | 0.00 | 1.50 | 1.50 | 77 | |
| 20260506203004 | 11 | 292 | 8.0 | 16.1 | 0.00 | 1.50 | 1.50 | 77 | |
| 20260506202503 | 11 | 300 | 8.0 | 16.1 | 0.00 | 1.50 | 1.50 | 78 | |
| 20260506202025 | 11 | 304 | 8.0 | 16.1 | 0.00 | 1.50 | 1.50 | 77 | |
| 20260506201503 | 11 | 294 | 8.0 | 14.5 | 0.00 | 1.50 | 1.50 | 77 | |
| 20260506201004 | 11 | 290 | 8.0 | 14.5 | 0.00 | 1.50 | 1.50 | 78 | |
| 20260506200503 | 11 | 297 | 9.7 | 14.5 | 0.00 | 1.50 | 1.50 | 78 | |
| 20260506200004 | 11 | 296 | 9.7 | 17.7 | 0.00 | 1.50 | 1.50 | 77 | |
| 20260506195503 | 12 | 288 | 9.7 | 17.7 | 0.00 | 1.50 | 1.50 | 77 | |
| 20260506195003 | 12 | 288 | 9.7 | 14.5 | 0.00 | 1.50 | 1.50 | 78 | |
| 20260506194503 | 12 | 300 | 8.0 | 14.5 | 0.00 | 1.50 | 1.50 | 79 | |
| 20260506194004 | 12 | 302 | 8.0 | 14.5 | 0.00 | 1.50 | 1.50 | 79 | |
| 20260506193504 | 12 | 294 | 8.0 | 14.5 | 0.00 | 1.50 | 1.50 | 79 | |
| 20260506193003 | 12 | 295 | 8.0 | 14.5 | 0.00 | 1.50 | 1.50 | 79 | |
| 20260506192504 | 12 | 305 | 8.0 | 16.1 | 0.00 | 1.50 | 1.50 | 79 | |
| 20260506192003 | 12 | 306 | 8.0 | 16.1 | 0.00 | 1.50 | 1.50 | 79 | |
| 20260506191525 | 12 | 308 | 8.0 | 16.1 | 0.00 | 1.50 | 1.50 | 79 | |
| 20260506191024 | 12 | 313 | 6.4 | 16.1 | 0.00 | 1.50 | 1.50 | 79 | |
| 20260506190505 | 12 | 313 | 4.8 | 14.5 | 0.00 | 1.50 | 1.50 | 80 | |
| 20260506190005 | 12 | 321 | 4.8 | 12.9 | 0.00 | 1.50 | 1.50 | 80 |